Weather History for Pompano Beach, FL

Change the Weather History Date:

Thursday, March 27, 2014

  Actual Average Record
Temperature  
Mean Temperature 72 °F -  
Max Temperature 78 °F 81 °F 91 °F (1984)
Min Temperature 66 °F 63 °F 41 °F (1953)
Cooling Degree Days 6    
Growing Degree Days 22 (Base 50)    
Moisture  
Dew Point 55 °F    
Average Humidity 56    
Maximum Humidity 71    
Minimum Humidity 47    
Precipitation  
Precipitation 0.00 in - - ()
Sea Level Pressure  
Sea Level Pressure 30.24 in    
Wind  
Wind Speed 14 mph (East)    
Max Wind Speed 24 mph    
Max Gust Speed 32 mph    
Visibility 10 miles    
Events      
Averages and records for this station are not official NWS values.
T = Trace of Precipitation, MM = Missing Value Source: NWS Daily Summary

Daily Weather History Graph

Daily Weather History Graph

Search for Another Location

Airport:

Trip Planner

Search our weather history database for the weather conditions in past years. The results will help you decide how hot, cold, wet, or windy it might be!

Date:

Astronomy

Mar. 27, 2014 Rise Set
Actual Time 7:16 AM EDT 7:35 PM EDT
Civil Twilight 6:53 AM EDT 7:58 PM EDT
Nautical Twilight 6:26 AM EDT 8:25 PM EDT
Astronomical Twilight 5:59 AM EDT 8:52 PM EDT
Moon 4:48 AM EDT (3/27) 4:37 PM EDT (3/27)
Length of Visible Light 13h 04m
Length of Day
12h 18m
Waning Crescent, 13% of the Moon is Illuminated
Mar 27
Waning Crescent
Mar 30
New
Apr 7
First Quarter
Apr 15
Full
Apr 22
Last Quarter

Hourly Weather History & Observations

Time (EDT) Temp. Dew Point Humidity Pressure Visibility Wind Dir Wind Speed Gust Speed Precip Events Conditions
12:53 AM 66.9 °F 48.9 °F 52% 30.26 in 10.0 mi East 8.1 mph - N/A   Mostly Cloudy
1:53 AM 66.9 °F 51.1 °F 57% 30.23 in 10.0 mi East 15.0 mph 21.9 mph N/A   Mostly Cloudy
2:53 AM 66.9 °F 51.1 °F 57% 30.21 in 10.0 mi East 16.1 mph - N/A   Scattered Clouds
3:53 AM 66.9 °F 51.1 °F 57% 30.22 in 10.0 mi East 16.1 mph - N/A   Clear
4:53 AM 68.0 °F 52.0 °F 56% 30.19 in 10.0 mi East 12.7 mph - N/A   Partly Cloudy
5:53 AM 68.0 °F 51.1 °F 55% 30.20 in 10.0 mi East 12.7 mph - N/A   Scattered Clouds
6:53 AM 68.0 °F 52.0 °F 56% 30.21 in 10.0 mi ESE 13.8 mph - N/A   Mostly Cloudy
7:53 AM 69.1 °F 53.1 °F 57% 30.22 in 10.0 mi ESE 18.4 mph 25.3 mph N/A   Mostly Cloudy
8:53 AM 71.1 °F 51.1 °F 49% 30.24 in 10.0 mi East 19.6 mph 24.2 mph N/A   Clear
9:53 AM 73.0 °F 52.0 °F 48% 30.26 in 10.0 mi East 17.3 mph - N/A   Partly Cloudy
10:53 AM 72.0 °F 55.0 °F 55% 30.30 in 10.0 mi East 18.4 mph - N/A   Mostly Cloudy
11:53 AM 73.9 °F 55.0 °F 52% 30.31 in 10.0 mi ESE 12.7 mph - N/A   Mostly Cloudy
12:53 PM 77.0 °F 55.0 °F 47% 30.28 in 10.0 mi East 16.1 mph 24.2 mph N/A   Scattered Clouds
1:53 PM 77.0 °F 55.9 °F 48% 30.27 in 10.0 mi ESE 15.0 mph 21.9 mph N/A   Partly Cloudy
2:53 PM 77.0 °F 57.0 °F 50% 30.27 in 10.0 mi ESE 10.4 mph - N/A   Partly Cloudy
3:53 PM 75.9 °F 55.9 °F 50% 30.26 in 10.0 mi East 10.4 mph - N/A   Clear
4:53 PM 75.0 °F 55.9 °F 51% 30.26 in 10.0 mi East 9.2 mph - N/A   Clear
5:53 PM 73.9 °F 59.0 °F 59% 30.25 in 10.0 mi East 10.4 mph - N/A   Scattered Clouds
6:53 PM 73.9 °F 60.1 °F 62% 30.25 in 10.0 mi East 15.0 mph 21.9 mph N/A   Scattered Clouds
7:53 PM 71.1 °F 61.0 °F 70% 30.25 in 10.0 mi East 15.0 mph 23.0 mph N/A   Mostly Cloudy
8:53 PM 72.0 °F 62.1 °F 71% 30.22 in 10.0 mi East 13.8 mph - N/A   Clear
9:53 PM 73.9 °F 57.9 °F 57% 30.23 in 10.0 mi SE 17.3 mph 23.0 mph N/A   Clear
10:53 PM 73.0 °F 60.1 °F 64% 30.22 in 10.0 mi SE 24.2 mph 32.2 mph N/A   Clear
11:53 PM 73.0 °F 60.1 °F 64% 30.20 in 10.0 mi SE 17.3 mph 28.8 mph N/A   Clear